Voltar ao catálogo

SL-14 DEB

AtivoPO
NORAD 45289·DEBRIS·🇷🇺 Russia

Lançado Aug 15, 1991 de Plesetsk Cosmodrome

Loading…

Próximas Passagens (próximas 24 horas)

TLE

AtualizadoSource: Space-Track

Época: Sep 14, 2026, 04:53 UTC

1 45289U 91056AB  26257.20392690  .00000477  00000-0  18281-2 0  9992
2 45289  82.5413 172.4664 0182167   9.0762 351.3560 12.83104745307673

Acompanhe SL-14 DEB em tempo real com AllMySat

Download on the App Store